Observations for Trim Patrick St
| Time | AQI | Temp °C | Hum % | Pres Pa | CO μg/m³ | H₂S μg/m³ | NO μg/m³ | NO₂ μg/m³ | O₃ μg/m³ | SO₂ μg/m³ | PM1 μg/m³ | PM2.5 μg/m³ | PM10 μg/m³ |
|---|---|---|---|---|---|---|---|---|---|---|---|---|---|
| Saturday 1 August 2026 | |||||||||||||
| 16:31 | 2 | 28.7 | 32 | 69,124 | 0 | 0 | 1.43 | 15.14 | 79.43 | 11.75 | 8.86 | 19.59 | 21.55 |
| 16:30 | 2 | 28.7 | 31 | 69,122 | 0 | 0 | 1.48 | 11.46 | 48.55 | 11.17 | 8 | 16.43 | 18.08 |
| 16:29 | 2 | 28.7 | 32 | 69,153 | 0 | 0 | 1.39 | 11.93 | 65.63 | 11.65 | 5.43 | 12.36 | 13.6 |
| 16:28 | 2 | 28.7 | 31 | 69,132 | 0 | 0 | 1.48 | 17.16 | 67.01 | 11.27 | 2 | 8.39 | 9.23 |
| 16:27 | 2 | 28.7 | 32 | 69,132 | 0 | 0 | 1.46 | 13.9 | 75.1 | 11.89 | 2.86 | 8.38 | 9.21 |
| 16:26 | 2 | 28.6 | 32 | 69,106 | 0 | 0 | 1.41 | 12.48 | 72.04 | 12.21 | 4.57 | 11.54 | 12.69 |
| 16:25 | 2 | 28.6 | 31 | 69,104 | 0 | 0 | 1.53 | 14.52 | 58.31 | 9.96 | 3.71 | 10.02 | 11.02 |
| 16:24 | 2 | 28.5 | 32 | 69,094 | 0 | 0 | 1.49 | 14.17 | 71.02 | 11.32 | 3.71 | 9.17 | 10.09 |
| 16:23 | 2 | 28.4 | 33 | 69,082 | 0 | 0 | 1.4 | 12.95 | 73.54 | 11.75 | 4.57 | 10.71 | 11.78 |
| 16:22 | 2 | 28.2 | 34 | 69,069 | 0 | 0 | 1.41 | 13.38 | 72.38 | 10.46 | 4.57 | 12.24 | 13.46 |
| 16:21 | 2 | 28 | 33 | 69,078 | 0 | 0 | 1.59 | 12.41 | 68.04 | 10.97 | 6.29 | 13.88 | 15.27 |
| 16:20 | 2 | 27.7 | 35 | 69,069 | 0 | 1.65 | 1.52 | 12.65 | 69.45 | 11.33 | 4.57 | 11.32 | 12.45 |
| 16:19 | 2 | 27.5 | 33 | 69,057 | 0 | 1.03 | 1.6 | 12.73 | 89.4 | 11.23 | 3.71 | 9.86 | 10.85 |
| 16:18 | 2 | 27.2 | 34 | 69,065 | 0 | 0 | 1.46 | 12.42 | 84.15 | 10.34 | 4.57 | 10.6 | 11.66 |
| 16:17 | 2 | 27 | 34 | 69,053 | 0 | 0 | 1.55 | 11.48 | 69.18 | 10.27 | 5.43 | 12.21 | 13.43 |
| 16:16 | 2 | 26.9 | 34 | 69,039 | 0 | 2.3 | 1.85 | 11.4 | 71.62 | 10.37 | 4.57 | 12.17 | 13.38 |
| 16:15 | 2 | 26.9 | 35 | 69,016 | 0 | 2.2 | 1.73 | 13.74 | 81.5 | 10.83 | 8 | 16.13 | 17.74 |
| 16:14 | 2 | 26.8 | 34 | 69,027 | 0 | 3.27 | 1.93 | 11.7 | 67.43 | 10.41 | 10.57 | 20.14 | 22.15 |
| 16:13 | 2 | 26.8 | 34 | 69,037 | 0 | 2.6 | 1.73 | 14.63 | 87.57 | 10.93 | 7.14 | 16.19 | 17.81 |
| 16:12 | 2 | 26.8 | 34 | 69,021 | 0 | 0 | 1.97 | 9.96 | 70.86 | 10.73 | 8 | 16.21 | 17.83 |